• In Uzbekistan
  • List of Countries
  • For 7 days
  • Water Temperature
  • Satellite Maps
  • Weather Map
  • Weather Widgets
  • user-avatar
    Login

    Hourly Weather Benguela

    Today, 26 February, Sunday

    Time Temperature Precipitation Wind Pressure Humidity
    00:00 +27°C° 0 mm 2 mps 758 mmHg 83%
    01:00 +26°C° 0 mm 2 mps 758 mmHg 84%
    02:00 +26°C° 0 mm 2 mps 758 mmHg 84%
    03:00 +26°C° 0 mm 2 mps 757 mmHg 85%
    04:00 +26°C° 0 mm 2 mps 757 mmHg 86%
    05:00 +26°C° 0 mm 2 mps 757 mmHg 84%
    06:00 +27°C° 0 mm 2 mps 758 mmHg 81%
    07:00 +27°C° 0 mm 1 mps 758 mmHg 78%
    08:00 +29°C° 0 mm 2 mps 758 mmHg 68%
    09:00 +32°C° 0 mm 2 mps 758 mmHg 58%
    10:00 +35°C° 0 mm 3 mps 758 mmHg 48%
    11:00 +35°C° 0 mm 4 mps 757 mmHg 46%
    12:00 +36°C° 0 mm 5 mps 757 mmHg 45%
    13:00 +38°C° 0 mm 6 mps 756 mmHg 44%
    14:00 +36°C° 0 mm 6 mps 756 mmHg 47%
    15:00 +35°C° 0 mm 5 mps 755 mmHg 50%
    16:00 +34°C° 0 mm 5 mps 755 mmHg 54%
    17:00 +33°C° 0 mm 5 mps 755 mmHg 60%
    18:00 +30°C° 0 mm 4 mps 756 mmHg 66%
    19:00 +29°C° 0 mm 3 mps 756 mmHg 71%
    20:00 +28°C° 0 mm 3 mps 756 mmHg 73%
    21:00 +28°C° 0 mm 3 mps 757 mmHg 75%
    22:00 +28°C° 0 mm 2 mps 757 mmHg 78%
    23:00 +28°C° 0 mm 2 mps 757 mmHg 79%

    Tomorrow, 27 February, Monday

    Time Temperature Precipitation Wind Pressure Humidity
    00:00 +27°C° 0 mm 2 mps 757 mmHg 80%
    01:00 +27°C° 0 mm 1 mps 756 mmHg 81%
    02:00 +27°C° 0 mm 1 mps 756 mmHg 82%
    03:00 +27°C° 0 mm 1 mps 756 mmHg 83%
    04:00 +27°C° 0 mm 1 mps 755 mmHg 85%
    05:00 +27°C° 0.1 mm 1 mps 756 mmHg 83%
    06:00 +27°C° 0.1 mm 1 mps 756 mmHg 82%
    07:00 +28°C° 0.1 mm 1 mps 756 mmHg 81%
    08:00 +28°C° 0.1 mm 1 mps 757 mmHg 78%
    09:00 +29°C° 0.1 mm 1 mps 757 mmHg 74%
    10:00 +30°C° 0.1 mm 2 mps 757 mmHg 71%
    11:00 +31°C° 0 mm 2 mps 757 mmHg 67%
    12:00 +31°C° 0 mm 2 mps 756 mmHg 64%
    13:00 +32°C° 0 mm 2 mps 756 mmHg 61%
    14:00 +33°C° 0 mm 3 mps 755 mmHg 60%
    15:00 +33°C° 0 mm 3 mps 755 mmHg 59%
    16:00 +34°C° 0 mm 4 mps 755 mmHg 58%
    17:00 +32°C° 0 mm 4 mps 755 mmHg 65%
    18:00 +30°C° 0 mm 3 mps 755 mmHg 72%
    19:00 +28°C° 0 mm 3 mps 756 mmHg 79%
    20:00 +28°C° 0 mm 2 mps 756 mmHg 81%
    21:00 +28°C° 0 mm 2 mps 757 mmHg 83%
    22:00 +27°C° 0 mm 2 mps 757 mmHg 85%
    23:00 +27°C° 0 mm 2 mps 757 mmHg 86%

    Day after tomorrow, 28 February, Tuesday

    Time Temperature Precipitation Wind Pressure Humidity
    00:00 +27°C° 0 mm 2 mps 757 mmHg 87%
    01:00 +27°C° 0 mm 2 mps 757 mmHg 88%
    02:00 +27°C° 0 mm 1 mps 756 mmHg 88%
    03:00 +27°C° 0 mm 1 mps 756 mmHg 89%
    04:00 +26°C° 0 mm 1 mps 756 mmHg 89%
    05:00 +27°C° 0 mm 1 mps 756 mmHg 88%
    06:00 +27°C° 0 mm 1 mps 757 mmHg 87%
    07:00 +25°C° 0 mm 0 mps 757 mmHg 85%
    08:00 +29°C° 0 mm 1 mps 757 mmHg 75%
    09:00 +31°C° 0 mm 1 mps 758 mmHg 64%
    10:00 +32°C° 0 mm 2 mps 758 mmHg 54%
    11:00 +35°C° 0 mm 3 mps 757 mmHg 49%
    12:00 +36°C° 0 mm 4 mps 757 mmHg 44%
    13:00 +37°C° 0 mm 5 mps 756 mmHg 39%
    14:00 +36°C° 0 mm 5 mps 756 mmHg 42%
    15:00 +35°C° 0 mm 5 mps 755 mmHg 45%
    16:00 +35°C° 0 mm 5 mps 755 mmHg 48%
    17:00 +33°C° 0 mm 5 mps 755 mmHg 57%
    18:00 +30°C° 0 mm 4 mps 756 mmHg 65%
    19:00 +28°C° 0 mm 3 mps 757 mmHg 74%
    20:00 +27°C° 0 mm 3 mps 757 mmHg 79%
    21:00 +26°C° 0 mm 2 mps 758 mmHg 83%
    22:00 +26°C° 0 mm 2 mps 759 mmHg 87%
    23:00 +25°C° 0 mm 2 mps 758 mmHg 88%

    1 March, Wednesday

    Time Temperature Precipitation Wind Pressure Humidity
    00:00 +25°C° 0 mm 2 mps 758 mmHg 89%
    01:00 +25°C° 0 mm 2 mps 757 mmHg 90%
    02:00 +24°C° 0 mm 2 mps 757 mmHg 90%
    03:00 +24°C° 0 mm 2 mps 757 mmHg 90%
    04:00 +24°C° 0 mm 2 mps 757 mmHg 90%
    05:00 +25°C° 0 mm 1 mps 757 mmHg 87%
    06:00 +25°C° 0 mm 1 mps 758 mmHg 84%
    07:00 +26°C° 0 mm 1 mps 758 mmHg 81%
    08:00 +28°C° 0 mm 1 mps 758 mmHg 68%
    09:00 +31°C° 0 mm 2 mps 758 mmHg 56%
    10:00 +34°C° 0 mm 2 mps 758 mmHg 44%
    11:00 +35°C° 0 mm 3 mps 757 mmHg 41%
    12:00 +36°C° 0 mm 4 mps 757 mmHg 38%
    13:00 +39°C° 0 mm 5 mps 756 mmHg 35%
    14:00 +37°C° 0 mm 5 mps 756 mmHg 38%
    15:00 +36°C° 0 mm 5 mps 755 mmHg 42%
    16:00 +35°C° 0 mm 5 mps 755 mmHg 45%
    17:00 +33°C° 0 mm 5 mps 756 mmHg 54%
    18:00 +30°C° 0 mm 4 mps 756 mmHg 63%
    19:00 +28°C° 0 mm 3 mps 757 mmHg 72%
    20:00 +27°C° 0 mm 3 mps 758 mmHg 76%
    21:00 +26°C° 0 mm 2 mps 758 mmHg 80%
    22:00 +26°C° 0 mm 1 mps 759 mmHg 84%
    23:00 +25°C° 0 mm 1 mps 759 mmHg 86%

    2 March, Thursday

    Time Temperature Precipitation Wind Pressure Humidity
    00:00 +25°C° 0 mm 1 mps 758 mmHg 87%
    01:00 +25°C° 0 mm 1 mps 758 mmHg 89%
    02:00 +24°C° 0 mm 1 mps 758 mmHg 89%
    03:00 +24°C° 0 mm 1 mps 757 mmHg 90%
    04:00 +24°C° 0 mm 1 mps 757 mmHg 90%
    05:00 +25°C° 0 mm 1 mps 758 mmHg 87%
    06:00 +25°C° 0 mm 1 mps 758 mmHg 83%
    07:00 +24°C° 0 mm 0 mps 758 mmHg 80%
    08:00 +28°C° 0 mm 1 mps 758 mmHg 68%
    09:00 +30°C° 0 mm 1 mps 758 mmHg 56%
    10:00 +32°C° 0 mm 2 mps 759 mmHg 44%
    11:00 +34°C° 0 mm 3 mps 758 mmHg 41%
    12:00 +36°C° 0 mm 4 mps 757 mmHg 38%
    13:00 +37°C° 0 mm 4 mps 757 mmHg 35%
    14:00 +36°C° 0 mm 4 mps 756 mmHg 37%
    15:00 +36°C° 0 mm 4 mps 756 mmHg 40%
    16:00 +35°C° 0 mm 4 mps 755 mmHg 42%
    17:00 +33°C° 0 mm 4 mps 756 mmHg 51%
    18:00 +30°C° 0 mm 3 mps 756 mmHg 60%
    19:00 +28°C° 0 mm 3 mps 757 mmHg 69%
    20:00 +27°C° 0 mm 2 mps 757 mmHg 74%
    21:00 +27°C° 0 mm 2 mps 758 mmHg 78%
    22:00 +26°C° 0 mm 2 mps 758 mmHg 83%
    23:00 +26°C° 0 mm 2 mps 758 mmHg 84%

    3 March, Friday

    Time Temperature Precipitation Wind Pressure Humidity
    00:00 +25°C° 0 mm 2 mps 757 mmHg 85%
    01:00 +25°C° 0 mm 2 mps 757 mmHg 86%
    02:00 +25°C° 0 mm 2 mps 757 mmHg 86%
    03:00 +24°C° 0 mm 1 mps 757 mmHg 87%
    04:00 +24°C° 0 mm 1 mps 757 mmHg 87%
    05:00 +25°C° 0 mm 1 mps 757 mmHg 82%
    06:00 +26°C° 0 mm 1 mps 757 mmHg 77%
    07:00 +27°C° 0 mm 1 mps 758 mmHg 71%
    08:00 +29°C° 0 mm 2 mps 758 mmHg 58%
    09:00 +32°C° 0 mm 2 mps 758 mmHg 45%
    10:00 +35°C° 0 mm 2 mps 758 mmHg 31%
    11:00 +36°C° 0 mm 3 mps 757 mmHg 30%
    12:00 +37°C° 0 mm 4 mps 756 mmHg 29%
    13:00 +40°C° 0 mm 5 mps 756 mmHg 28%
    14:00 +39°C° 0 mm 5 mps 755 mmHg 31%
    15:00 +37°C° 0 mm 5 mps 755 mmHg 33%
    16:00 +37°C° 0 mm 5 mps 755 mmHg 35%
    17:00 +34°C° 0 mm 5 mps 755 mmHg 46%
    18:00 +32°C° 0 mm 4 mps 755 mmHg 57%
    19:00 +28°C° 0 mm 3 mps 756 mmHg 68%
    20:00 +27°C° 0 mm 3 mps 756 mmHg 73%
    21:00 +26°C° 0 mm 3 mps 757 mmHg 79%
    22:00 +26°C° 0 mm 3 mps 757 mmHg 84%
    23:00 +25°C° 0 mm 2 mps 757 mmHg 84%
    Show more